Home > Weather > Molepolole > Past weeks

Flag for Botswana Past Weather in Molepolole, Botswana — Yesterday and Last 2 Weeks

Now
45 °F

Sunny.


Feels Like: 41 °F
Forecast: 32 / 67 °F
Wind: 6 mph from West

Location: Seretse Khama International Airport

Current Time: Jul 27, 2016 at 9:54:28 AM

Latest Report: Jul 27, 2016 at 9:00 AM


Visibility: 10 mi

Pressure: 30.18 "Hg (26.25 "Hg at 1145m altitude)

Humidity: 25%

Dew Point: 10 °F

Location of MolepololeLocation

Past Weather in Molepolole — Graph

°F

Molepolole Temperature Yesterday

Maximum temperature yesterday: 72 °F (at 4:00 PM)
Minimum temperature yesterday: 46 °F (at 7:00 AM)
Average temperature yesterday: 57 °F

High & Low Weather Summary for the Past Weeks

 TemperatureHumidityPressure
High81 °F (Jul 22, 2:00 PM)81% (Jul 13, 5:00 AM)30.51 "Hg (Jul 13, 5:00 AM)
Low30 °F (Jul 27, 6:00 AM)9% (Jul 22, 2:00 PM)29.92 "Hg (Jul 25, 4:00 PM)
Average57 °F41%30.23 "Hg
* Reported Jul 12 8:00 AM — Jul 27 8:00 AM, Molepolole, Weather by CustomWeather, © 2016

Note: Actual official high and low records may vary slightly from our data, if they occured in-between our weather recording intervals... More about our weather records

Advertising

Molepolole Weather History for the Previous 24 Hours

Scroll right to see more
 ConditionsComfort  
Time TempWeatherWind HumidityBarometerVisibility
8:00 AM
Wed, Jul 27
36 °FSunny.3 mph35%30.15 "Hg10 mi
7:00 AM30 °FPassing clouds.5 mph47%30.15 "HgN/A
6:00 AM30 °FSunny.2 mph47%30.12 "Hg10 mi
5:00 AM32 °FClear.2 mph40%30.09 "Hg10 mi
4:00 AM36 °FClear.6 mph32%30.09 "Hg10 mi
3:00 AM34 °FPassing clouds.3 mph38%30.09 "HgN/A
2:00 AM37 °FClear.3 mph30%30.12 "Hg10 mi
1:00 AM39 °FClear.2 mph26%30.12 "Hg10 mi
12:00 AM50 °FClear.9 mph14%30.12 "Hg10 mi
11:00 PM
Tue, Jul 26
50 °FClear.12 mph14%30.09 "Hg10 mi
10:00 PM52 °FClear.13 mph12%30.09 "Hg10 mi
9:00 PM55 °FClear.15 mph12%30.09 "Hg10 mi
8:00 PM55 °FClear.10 mph13%30.07 "Hg10 mi
7:00 PM61 °FClear.13 mph11%30.04 "Hg10 mi
6:00 PM64 °FClear.12 mph12%30.01 "Hg10 mi
5:00 PM70 °FPassing clouds.15 mph11%29.98 "HgN/A
4:00 PM72 °FPassing clouds.17 mph11%29.95 "HgN/A
3:00 PM70 °FPassing clouds.7 mph23%29.98 "HgN/A
2:00 PM68 °FPassing clouds.3 mph26%29.98 "HgN/A
1:00 PM66 °FPassing clouds.5 mph22%30.01 "HgN/A
12:00 PM64 °FPassing clouds.2 mph18%30.07 "HgN/A
11:00 AM61 °FScattered clouds.5 mph17%30.09 "HgN/A
10:00 AM57 °FScattered clouds.5 mph20%30.12 "HgN/A
9:00 AM52 °FPassing clouds.3 mph32%30.09 "HgN/A
Weather by CustomWeather, © 2016

See weather overviewHow to use our weather pages